Wind_Speed
34 29 24 23 21 20 20 19 16 14 12 11 11 11 12 13 14 14 14 13 13 15 17 18 18 18 19 21 23 27 32 34 36 38 38 33 28 29 30 30 32 31 30 29 26 23 22 21 20 19 18 17 17 17 15 14 12 8 5 4 5 6 5 4 4 4 2 0 2 4 6 6 7 8 10 11 11 11 11 11 11 10 9 7 6 5 4 5
37 30 24 22 20 18 18 18 16 13 11 10 10 10 11 13 14 14 13 12 13 14 16 17 18 18 19 21 22 26 31 33 35 38 36 33 31 30 29 30 31 31 29 27 24 22 22 22 21 21 21 20 19 19 15 13 11 8 6 3 4 4 4 3 3 1 2 2 4 6 6 7 8 10 11 11 11 11 12 11 10 10 8 6 6 6 6 5
37 32 25 21 19 18 15 15 15 13 11 9 9 9 10 12 14 14 13 12 13 14 16 17 17 17 18 20 21 25 29 31 34 34 33 33 32 30 30 29 28 31 32 27 23 21 23 23 23 23 23 22 21 20 15 13 11 8 6 3 3 3 2 1 1 1 3 4 6 7 8 9 9 10 10 11 11 12 12 11 10 9 8 6 5 6 5 5
36 34 26 21 19 17 14 13 12 12 11 9 8 8 9 11 12 13 12 11 13 14 15 17 17 17 17 19 21 24 27 29 30 27 32 34 30 30 32 28 25 32 32 26 24 23 24 25 25 24 24 22 20 18 13 11 9 6 5 3 2 1 0 0 2 2 4 6 7 8 9 9 9 10 11 11 11 12 11 9 9 8 8 7 6 5 4 5
34 33 27 21 18 16 13 11 10 10 9 8 7 7 8 10 11 11 9 10 12 14 15 16 15 16 17 19 20 23 24 25 24 22 30 35 27 28 32 26 24 29 27 23 25 25 26 27 26 23 21 19 16 14 11 9 7 5 5 3 2 1 1 1 3 4 5 7 8 8 9 9 9 10 10 10 11 11 9 8 7 7 7 6 6 5 5 6
32 32 26 21 18 16 13 10 9 8 7 7 6 6 7 8 9 8 6 7 10 12 14 13 13 15 16 18 19 22 21 18 21 20 28 34 28 29 33 26 25 26 23 23 26 26 26 26 23 19 17 16 13 11 9 7 6 4 5 5 4 3 2 2 4 4 5 7 8 8 8 9 9 9 10 10 10 9 8 7 7 6 6 6 5 5 5 5
30 30 25 21 18 16 13 10 9 7 6 6 5 5 5 6 6 5 3 5 8 10 11 11 12 14 15 17 18 21 18 15 20 19 27 36 29 30 32 26 24 25 23 22 22 24 26 23 19 16 13 11 9 9 9 8 5 5 5 5 4 4 3 4 5 5 6 7 8 8 8 9 9 9 9 9 9 8 7 6 5 4 5 5 5 6 5 5
28 27 24 21 18 15 13 11 10 8 6 5 5 5 5 5 4 2 2 5 8 9 10 10 12 13 15 17 19 21 17 16 22 22 29 35 28 29 29 25 26 27 25 21 21 24 23 17 15 14 10 9 9 10 9 8 7 6 5 4 4 4 4 5 6 6 7 7 8 8 8 9 8 8 8 8 7 5 4 4 4 4 5 5 5 6 5 5
28 25 23 20 18 15 14 12 10 9 7 6 7 7 6 6 4 4 5 7 9 10 10 11 11 13 15 16 20 22 16 19 24 23 29 31 28 26 24 25 26 25 25 23 23 22 17 13 13 12 10 10 10 9 8 7 5 5 4 4 4 5 5 5 6 6 6 7 7 7 7 8 7 7 7 7 4 4 4 4 4 4 4 5 5 5 5 5
30 26 22 20 18 16 14 12 11 10 9 9 9 8 8 7 6 6 7 9 10 11 11 11 12 13 15 17 22 21 17 22 25 23 28 30 27 26 25 25 24 23 25 24 20 16 13 12 13 13 13 11 10 7 6 5 4 5 5 4 5 5 5 5 5 5 5 5 5 6 6 7 6 6 6 5 4 5 7 8 6 4 5 6 6 5 5 6
33 28 23 20 18 16 14 12 11 11 11 11 11 10 10 9 9 8 9 10 11 12 12 13 13 14 16 19 23 21 18 23 22 21 27 29 27 27 28 27 24 25 24 19 15 14 14 14 15 15 12 10 10 7 6 5 4 4 4 4 5 5 5 4 3 2 3 4 5 6 6 6 6 6 6 5 5 6 8 9 8 6 7 8 7 6 5 6
35 32 27 21 18 17 15 13 12 13 13 13 12 12 11 10 10 10 10 10 11 12 12 13 14 16 19 21 22 20 19 22 21 21 27 31 29 27 30 30 25 23 20 15 13 14 16 17 17 14 10 9 10 6 6 5 3 3 3 3 3 4 4 3 3 3 3 4 4 6 6 6 6 6 6 5 6 7 8 9 9 9 9 9 9 9 7 7
35 34 31 25 20 18 17 14 14 14 14 15 13 12 12 12 12 11 12 12 12 11 10 12 14 18 22 22 21 20 20 23 22 21 23 27 27 28 31 28 21 20 18 17 15 15 18 19 17 12 10 10 8 4 4 4 3 2 2 1 2 3 3 3 2 2 2 3 4 5 5 5 5 5 5 6 6 8 9 9 11 10 10 11 11 10 9 8
33 33 31 28 25 22 21 18 17 16 16 17 16 16 15 15 15 14 13 13 13 12 13 14 16 21 23 22 20 21 23 24 22 22 24 26 29 31 28 23 21 20 19 18 16 16 18 18 15 10 9 10 7 5 4 5 4 2 1 1 2 2 3 2 2 1 1 2 4 5 5 4 4 4 5 5 7 8 9 10 12 10 10 11 11 11 11 9
30 31 31 29 28 27 28 27 26 24 23 23 23 22 21 20 18 17 15 14 14 14 16 18 20 24 24 21 20 24 27 26 25 31 34 33 31 28 23 20 19 19 18 17 16 16 16 17 13 9 8 8 6 4 3 4 3 3 2 2 2 3 4 3 3 3 2 3 5 5 5 4 3 3 5 5 6 8 10 11 11 10 10 11 12 12 11 8
24 26 28 28 28 30 32 32 31 29 28 28 27 26 25 23 21 19 18 16 14 15 18 20 23 24 22 21 22 28 31 32 35 38 37 34 28 22 18 18 18 20 19 17 17 16 15 15 12 9 6 6 5 2 1 2 2 4 4 5 4 4 5 4 5 5 5 5 5 4 4 3 3 2 5 5 6 8 10 12 11 10 11 12 12 12 11 10
21 21 22 23 24 28 31 32 31 29 27 26 26 25 25 24 24 22 19 16 15 18 19 19 22 22 23 26 27 33 38 39 42 40 36 32 25 18 14 14 17 19 17 16 17 16 14 13 11 10 6 4 4 2 1 1 3 5 6 7 7 6 6 5 6 7 7 5 3 2 3 3 3 3 5 5 6 8 10 11 11 10 12 13 13 12 12 11
19 20 21 21 22 24 29 33 34 29 25 25 25 25 25 25 25 23 21 18 19 22 22 20 24 24 26 31 32 36 39 39 39 36 34 30 24 19 13 11 12 12 11 14 16 14 13 12 10 9 6 5 5 4 2 1 3 4 5 6 7 7 7 6 5 4 5 4 2 2 3 4 3 3 4 6 7 9 11 12 11 11 12 13 13 12 12 12
18 19 20 22 25 27 29 33 35 30 25 23 24 23 23 23 22 21 23 23 22 22 23 23 25 26 30 34 34 36 37 35 32 29 30 29 26 21 13 8 8 7 11 15 14 12 11 9 9 9 7 5 4 1 1 2 4 5 6 5 5 5 5 5 5 3 2 2 2 2 3 3 2 2 4 6 9 11 12 13 13 12 12 12 12 12 12 12
16 17 18 20 23 27 28 29 34 33 27 23 21 21 20 21 19 18 22 24 22 21 23 26 27 28 32 34 32 34 36 33 28 25 26 27 25 22 15 9 6 8 14 15 12 10 8 7 8 8 5 4 3 1 1 3 5 6 6 5 5 4 3 4 5 4 3 2 1 2 3 2 1 3 5 7 8 10 12 13 13 12 11 11 11 11 12 12
14 15 16 18 20 24 26 25 28 31 29 24 22 22 21 19 18 20 25 27 26 23 24 25 26 26 28 31 31 34 36 32 26 24 25 25 23 19 15 9 5 10 14 14 11 7 4 6 7 6 4 2 1 4 5 6 7 7 7 5 5 5 5 5 5 5 4 3 2 2 3 2 3 5 6 6 7 8 10 11 12 12 11 11 11 11 11 11
13 13 14 16 18 21 24 24 24 26 29 28 26 25 21 19 19 22 27 29 27 25 23 21 21 21 23 29 32 34 34 30 26 24 23 21 16 15 15 10 8 11 13 13 10 6 5 5 5 5 4 4 6 7 7 8 8 7 7 6 5 6 8 8 7 6 5 4 3 3 5 4 4 6 6 6 6 7 8 10 11 11 11 11 10 10 10 9
11 12 13 13 16 18 20 22 22 23 28 30 27 25 21 20 22 23 26 28 25 23 21 19 18 18 23 28 30 31 29 22 19 18 18 15 13 18 16 9 10 13 12 11 8 6 7 6 5 2 1 4 7 9 9 9 8 7 7 6 5 6 8 9 9 8 7 5 3 3 6 7 6 7 8 8 9 9 10 10 12 12 11 11 10 10 9 8
9 11 12 13 14 15 17 19 20 22 26 27 24 22 19 20 21 21 23 24 24 22 20 17 15 19 26 27 24 23 21 17 13 12 16 15 15 19 15 9 13 16 13 10 6 5 5 2 4 3 3 4 7 9 10 9 9 8 8 7 5 4 6 8 8 8 8 8 6 5 7 9 9 9 8 10 12 12 12 13 13 13 13 14 13 12 11 10
7 9 11 13 13 13 15 16 17 18 21 22 20 18 16 17 18 16 18 21 22 20 19 18 16 21 26 23 16 12 15 13 9 11 15 15 14 17 17 15 15 14 11 8 3 5 4 4 5 3 3 5 5 7 7 7 8 7 7 7 5 5 6 8 7 8 9 9 8 6 5 5 7 9 10 12 14 14 14 15 14 14 15 15 15 13 13 12
6 8 10 12 12 12 13 15 14 14 15 17 18 16 13 13 14 15 18 22 22 17 16 17 18 23 23 16 9 9 13 9 7 13 16 14 13 15 16 14 8 6 4 1 5 9 8 4 2 2 4 5 5 6 5 6 7 7 6 5 6 5 5 7 6 7 8 6 5 6 6 5 7 9 10 13 14 14 16 16 16 16 16 16 15 14 14 13
4 6 9 10 10 11 13 14 14 13 14 14 14 15 13 12 12 13 14 16 15 13 13 12 15 20 15 7 6 10 12 8 11 16 13 12 12 7 6 8 5 3 2 5 7 7 7 3 1 1 2 6 8 6 4 6 6 6 4 3 5 3 2 5 6 7 6 3 4 7 8 8 11 10 10 14 16 16 18 17 17 18 18 17 16 14 15 13
2 4 6 8 9 11 12 14 13 13 14 13 13 13 12 12 10 8 7 6 5 6 8 8 8 7 4 5 9 13 9 6 15 14 5 6 9 8 8 6 6 6 6 9 9 5 4 2 1 1 1 5 8 4 2 4 5 5 3 3 5 3 2 4 5 8 7 5 5 8 8 6 9 11 9 13 18 20 21 19 18 19 18 17 16 15 14 14
4 3 4 6 8 9 11 12 13 13 13 13 13 12 10 10 8 8 7 4 4 5 6 7 5 5 7 14 15 15 11 8 10 7 2 5 8 10 9 7 8 7 6 8 6 1 1 3 2 2 2 3 6 4 3 4 5 5 2 3 6 4 5 4 4 8 6 6 8 9 10 6 7 12 11 14 18 17 18 19 18 18 18 17 16 16 15 15
6 3 2 3 5 7 9 11 12 12 11 11 11 11 9 7 6 7 6 4 6 6 5 7 8 6 13 19 15 14 14 9 3 1 3 7 9 10 8 6 5 4 3 4 3 1 2 2 2 4 5 4 6 8 7 5 6 5 3 6 7 5 4 3 5 7 4 6 6 7 9 9 5 8 8 10 11 7 8 14 17 19 19 18 18 17 16 16
7 5 3 2 3 5 7 9 10 10 10 10 9 8 7 7 8 8 4 3 6 7 6 7 9 9 12 13 11 10 12 10 7 6 4 4 6 8 6 3 2 4 4 4 3 2 3 2 2 3 5 5 6 8 7 5 6 6 6 8 7 5 4 3 3 3 1 3 3 5 5 10 9 6 4 5 7 6 6 8 12 17 19 18 18 18 17 16
9 7 4 3 2 2 4 6 8 10 10 9 9 6 4 8 11 9 4 4 6 7 8 9 9 11 12 9 6 7 9 9 11 10 8 6 4 3 3 4 5 6 5 4 5 3 4 6 3 2 3 4 5 7 7 6 8 8 9 10 6 4 3 0 1 2 3 5 6 7 3 10 14 12 7 7 8 7 7 5 7 13 17 17 17 17 17 16
11 9 6 5 4 2 1 3 6 8 8 9 9 5 4 7 8 7 8 8 6 6 6 8 9 10 10 8 8 9 8 7 6 4 4 9 8 6 5 7 8 7 6 6 7 4 4 7 7 6 5 4 5 7 8 5 7 11 12 9 5 3 3 1 2 2 3 4 5 5 4 7 12 9 4 4 6 7 9 5 4 9 13 14 14 15 16 16
13 11 9 6 5 4 2 1 3 5 6 8 7 5 8 9 6 7 10 10 8 6 5 6 7 8 9 8 9 10 10 9 6 5 3 3 5 7 6 4 7 7 6 7 8 5 3 5 8 9 7 5 4 6 6 5 6 11 13 10 5 2 1 2 2 2 2 0 1 4 5 4 5 3 3 4 5 7 11 8 6 8 11 12 13 14 15 16
15 13 11 8 7 6 4 3 2 2 4 6 6 7 10 9 5 6 8 9 8 7 5 6 5 6 9 9 8 7 8 8 5 3 3 2 4 5 4 3 5 4 6 6 5 4 3 1 4 8 9 5 4 4 4 5 5 10 13 12 8 4 3 3 1 2 3 1 2 5 5 7 7 7 6 4 4 5 11 11 9 12 14 15 15 15 14 14
16 14 11 10 9 8 7 5 3 3 3 5 5 7 10 7 5 6 7 7 7 6 5 6 6 7 8 8 8 6 5 5 3 3 2 2 3 3 0 3 5 1 5 4 1 1 2 0 1 5 8 8 6 3 2 4 4 7 11 13 10 6 6 3 1 1 1 1 1 5 7 10 9 7 5 5 4 4 9 12 10 13 15 14 13 13 12 12
14 13 11 11 10 10 9 8 6 4 4 4 3 7 9 7 6 6 6 7 6 5 5 5 5 4 4 5 6 4 4 4 2 3 3 3 3 1 2 3 6 3 5 4 1 1 3 3 2 1 5 8 9 6 4 6 5 5 8 9 8 6 5 4 2 2 2 1 3 5 8 11 8 4 3 3 4 3 6 10 11 12 13 12 10 10 9 9
12 11 10 9 9 10 10 9 8 6 4 2 2 7 7 6 6 6 7 7 5 4 5 5 5 3 3 4 4 4 3 3 1 1 2 3 3 2 2 2 6 5 6 5 1 2 5 5 2 1 4 6 8 8 8 9 9 9 9 6 5 5 4 4 3 1 1 1 3 4 8 10 8 5 3 3 4 4 4 7 10 10 9 9 10 9 9 10
11 11 10 9 9 9 8 8 8 6 4 4 3 6 6 6 7 7 8 8 5 4 4 4 4 3 2 3 4 3 3 3 2 2 2 3 3 2 1 2 3 2 3 4 3 3 5 5 2 2 5 5 7 10 12 12 12 12 11 7 6 7 5 4 4 2 0 0 2 4 5 5 6 6 3 2 3 5 4 5 6 7 7 7 9 10 11 11
12 10 10 10 9 8 6 7 7 6 6 6 4 5 5 5 5 5 7 7 7 6 5 5 5 5 4 3 3 4 3 3 3 3 4 3 3 3 1 1 1 1 2 4 6 4 5 5 3 2 4 5 7 9 11 12 12 14 13 9 8 9 7 4 4 5 3 1 2 0 3 7 9 7 4 2 1 2 3 3 3 4 5 6 8 9 9 10
12 10 10 10 9 7 7 7 7 8 8 7 5 6 5 3 4 5 4 5 6 6 6 7 7 7 6 4 3 2 2 3 3 4 5 4 4 4 2 1 2 2 3 6 8 7 6 5 5 3 4 5 7 8 9 10 10 11 13 12 11 12 10 5 3 6 5 4 2 2 3 10 11 7 5 4 4 4 2 2 3 2 2 4 7 8 8 9
13 11 11 10 9 8 9 9 10 10 8 7 6 6 5 3 3 4 4 4 5 5 5 6 7 7 6 5 3 2 3 3 2 3 3 5 5 4 1 2 3 4 4 6 7 7 7 5 7 9 8 7 7 8 8 8 8 9 13 14 13 13 13 8 4 5 5 5 4 2 3 9 10 6 6 6 7 6 5 4 4 3 3 4 6 8 9 9
13 12 11 10 10 10 10 10 10 10 8 7 6 5 4 4 4 5 5 5 6 5 4 5 5 4 3 3 4 2 4 2 2 2 3 5 6 3 1 1 3 4 5 6 6 6 5 4 6 8 8 7 8 9 10 8 9 10 13 14 13 12 14 13 11 10 5 4 5 2 2 8 9 7 7 8 8 8 8 6 5 5 5 4 5 8 10 11
14 12 11 9 9 11 10 10 10 9 8 8 7 5 4 4 5 5 5 6 6 5 4 4 3 2 1 1 2 2 4 4 2 1 2 4 6 3 2 2 2 4 7 6 4 4 4 5 6 4 3 4 4 6 10 12 12 12 12 13 13 12 14 15 15 13 8 6 6 4 4 10 11 9 9 9 9 8 7 6 6 5 6 6 5 7 11 14
16 13 12 9 8 10 10 9 10 8 8 8 8 7 7 6 6 5 5 6 6 5 4 3 2 2 2 0 1 1 2 3 2 1 3 4 6 5 2 1 0 5 9 7 4 5 7 8 8 6 3 3 3 4 8 11 12 13 14 15 15 15 16 16 11 9 9 8 8 7 8 14 14 11 11 9 8 8 6 4 5 5 6 7 6 7 11 15
17 14 13 10 8 8 10 10 10 9 8 8 8 8 8 7 6 5 5 5 5 5 4 2 1 2 2 0 2 2 2 2 1 3 5 5 6 6 2 2 1 3 7 7 7 9 11 11 10 10 9 7 6 5 6 8 8 10 13 15 16 15 15 14 10 11 11 10 10 13 14 16 15 12 11 9 8 8 6 4 5 5 6 7 6 6 9 14
19 15 13 12 9 8 9 10 10 10 9 8 8 7 7 6 5 4 3 3 3 4 4 3 2 2 2 1 2 4 4 4 3 3 5 6 7 8 5 2 1 3 7 8 9 11 14 10 8 9 9 7 6 6 6 7 8 9 9 10 13 13 11 12 13 15 15 12 12 14 14 13 14 11 10 9 8 9 8 6 4 3 4 6 7 6 8 12
20 16 15 14 11 9 10 11 10 9 9 7 7 7 6 5 4 2 1 1 2 3 3 3 3 2 2 2 1 3 4 6 6 5 5 6 7 9 9 4 2 3 6 6 7 11 12 9 7 7 7 6 7 8 8 9 10 10 10 10 12 13 13 13 13 16 17 16 15 16 14 14 14 11 9 8 8 7 7 5 5 5 5 6 7 8 9 11
21 18 17 16 13 10 10 11 10 9 9 7 7 7 5 4 3 2 2 2 0 2 2 2 2 2 3 3 3 3 4 5 7 7 6 6 6 9 11 8 5 4 5 6 7 9 9 6 5 6 6 7 8 9 11 12 12 12 13 13 14 15 15 14 14 14 16 17 17 17 15 15 13 10 8 7 6 6 7 6 6 5 5 5 6 6 8 10
20 19 18 18 15 11 11 11 10 9 8 7 7 7 6 5 4 4 3 3 2 1 2 1 1 2 3 3 4 4 4 5 5 6 7 6 6 7 9 9 7 6 6 6 6 8 6 3 2 4 7 8 8 10 11 13 14 14 13 14 15 16 15 15 14 14 14 15 16 15 16 16 13 10 9 8 7 7 8 8 6 4 4 5 5 5 7 8
19 19 18 19 18 14 12 12 11 10 8 7 7 6 5 6 5 4 4 3 3 2 2 1 1 2 3 3 3 3 4 6 6 6 7 8 7 8 9 9 9 9 7 5 5 6 5 3 1 3 6 8 8 9 10 12 13 15 15 14 15 16 16 15 14 13 13 14 14 15 16 16 14 11 9 8 8 8 7 8 6 4 4 5 5 6 7 8
17 19 18 19 19 17 15 14 13 12 10 8 7 6 6 6 6 5 5 3 3 3 2 2 2 3 3 3 4 6 7 7 8 7 8 9 9 10 11 11 11 12 11 8 5 4 4 3 2 5 6 8 9 9 10 9 8 10 12 12 14 16 16 15 14 13 13 14 16 17 17 15 12 11 10 9 7 6 5 7 6 5 5 5 5 6 7 9
Wind_Direction
349 345 343 340 334 325 315 310 307 302 295 285 279 273 268 265 261 259 254 244 232 222 217 219 223 220 215 211 209 202 197 197 198 199 197 187 180 186 188 189 189 189 192 191 190 190 185 180 174 167 164 164 162 163 167 173 178 180 165 137 126 121 118 106 104 112 63 37 247 281 287 299 294 290 288 286 283 282 286 288 286 280 282 288 283 272 252 247
350 348 346 343 337 329 318 310 308 306 298 287 282 275 269 266 265 265 260 248 230 220 216 219 222 218 214 210 208 202 196 196 196 198 197 186 180 182 178 183 188 186 189 191 192 189 181 177 172 166 163 161 160 162 164 169 175 174 160 132 122 106 99 98 79 75 354 326 291 297 297 298 291 290 289 283 282 282 285 284 278 274 275 278 276 269 255 249
352 351 348 345 339 333 323 313 309 306 302 295 286 278 274 270 272 274 267 254 232 220 217 219 221 217 212 208 206 202 196 194 195 197 198 189 183 179 174 180 183 183 185 187 192 187 177 175 169 163 160 159 159 160 164 169 173 172 157 109 97 87 74 103 41 338 319 314 303 304 302 300 295 292 289 283 282 281 279 276 273 273 270 259 249 252 250 245
351 353 351 347 342 338 330 319 311 308 306 303 296 287 285 280 283 282 271 253 230 219 215 217 219 213 208 205 203 200 195 193 192 197 200 190 183 183 179 179 182 184 185 186 192 185 176 173 164 159 159 159 160 161 162 166 170 175 165 113 79 76 25 189 333 316 312 316 312 311 306 304 300 294 288 283 280 277 276 275 273 271 266 246 222 225 236 239
350 354 353 350 347 345 340 330 319 314 314 316 312 304 302 299 297 289 271 244 224 214 211 214 214 206 204 201 198 196 192 189 187 197 200 188 180 181 179 179 182 185 191 196 194 182 174 168 158 156 159 159 159 160 161 163 161 161 161 146 152 219 253 252 310 313 317 322 317 312 309 308 304 295 289 283 280 278 278 276 267 259 255 238 218 216 223 237
353 357 357 355 354 353 352 346 340 334 332 334 330 327 324 321 317 303 274 232 213 208 207 207 203 200 199 194 191 189 182 179 182 190 194 187 179 174 173 175 179 184 194 195 186 176 168 160 153 153 156 158 157 160 166 164 161 169 165 161 187 219 256 274 297 307 316 320 316 315 313 310 304 295 289 283 280 280 280 274 263 251 244 233 216 208 216 232
357 1 3 2 3 2 3 4 2 359 355 351 348 351 348 344 342 329 282 212 196 193 194 193 191 193 191 186 184 176 166 168 175 177 184 186 180 171 171 171 170 173 175 176 175 171 165 154 148 148 145 156 163 163 170 171 170 183 187 187 217 245 256 262 283 300 313 315 314 318 316 312 304 295 287 280 280 281 277 265 255 241 224 212 188 185 204 221
3 7 10 9 11 12 15 18 17 14 10 6 7 14 15 15 23 47 127 162 164 165 173 177 180 184 182 178 173 162 153 160 167 169 178 185 183 173 172 166 161 164 165 167 167 163 159 146 140 139 129 142 154 150 160 178 177 176 206 227 236 248 248 262 286 303 311 312 315 320 317 311 303 296 288 281 281 269 259 256 237 206 187 174 167 182 200 209
17 16 17 16 17 21 22 24 25 22 21 22 26 32 37 46 67 96 129 141 145 151 158 165 169 172 171 167 161 153 147 156 164 169 172 182 186 174 166 160 158 167 166 160 157 152 144 134 134 135 130 140 150 146 151 171 179 177 202 224 225 237 249 271 292 303 308 311 314 314 308 304 299 296 290 284 271 209 203 215 200 189 179 160 156 182 189 176
26 24 24 23 22 25 28 30 33 33 35 40 42 46 56 69 82 98 119 127 132 139 143 151 156 156 158 155 154 151 149 159 164 167 169 178 181 165 156 155 154 160 154 144 141 136 128 130 137 139 136 140 154 158 149 163 207 205 203 214 221 239 256 275 290 298 305 306 301 299 300 302 300 294 284 275 245 194 192 197 195 197 188 166 156 173 179 166
31 33 32 31 30 30 32 38 44 49 52 54 54 58 66 75 86 93 103 115 125 131 133 139 141 144 147 146 151 155 155 162 164 163 166 171 174 164 152 147 144 144 141 132 128 132 136 138 138 140 137 135 150 165 170 188 227 217 217 237 228 240 255 261 269 263 273 282 291 302 306 305 303 294 276 255 229 203 197 201 205 198 180 168 159 166 175 171
33 37 40 39 38 37 37 41 52 59 63 65 65 68 72 77 84 89 96 109 117 121 125 133 139 141 141 140 148 158 159 162 161 158 163 166 169 162 146 141 137 132 134 137 139 144 147 143 138 138 142 146 153 173 194 196 206 201 211 245 230 231 237 227 219 213 250 287 307 309 306 304 298 289 265 231 214 203 202 203 198 190 179 170 160 158 165 166
33 37 43 45 44 45 45 47 56 63 67 69 69 71 74 77 81 86 95 105 109 110 117 131 140 139 138 140 146 155 161 163 158 153 160 165 160 149 140 140 133 126 137 148 150 151 150 149 144 140 149 162 173 200 208 186 176 204 204 254 250 216 208 199 200 219 276 304 311 305 300 303 297 280 245 214 202 197 200 199 191 185 176 171 163 156 160 163
37 40 46 52 55 55 53 54 57 62 66 68 70 71 73 75 78 83 91 98 102 105 114 127 136 139 142 144 146 153 156 156 152 142 143 149 146 141 140 137 130 130 141 146 147 148 150 155 155 149 151 164 192 221 214 190 186 215 220 256 256 212 202 195 201 238 299 294 294 303 296 297 302 272 229 200 190 189 188 190 185 176 168 169 165 156 158 164
39 46 50 54 59 62 62 62 62 62 65 68 71 73 75 78 79 82 86 90 97 104 115 125 134 140 143 143 145 151 148 143 142 136 134 137 138 135 130 125 125 128 132 139 145 145 150 160 161 158 156 162 189 216 194 175 188 231 253 251 236 223 220 211 227 251 271 272 281 301 294 294 315 267 226 194 181 181 178 179 175 165 164 167 164 157 156 162
32 46 52 52 57 66 68 68 67 65 66 70 74 76 78 80 80 81 82 86 93 105 115 124 135 140 139 138 142 146 141 136 136 133 132 134 134 130 121 121 131 132 128 134 141 142 147 157 157 153 160 170 182 214 189 166 231 265 268 255 243 237 237 233 237 252 259 257 268 291 293 301 330 280 230 203 180 176 175 172 165 162 166 167 162 157 156 159
25 33 43 46 54 70 72 69 67 65 66 72 75 75 77 78 78 77 76 82 94 106 112 122 135 135 130 132 136 140 138 136 137 134 132 133 132 131 119 118 132 128 122 132 141 144 147 153 156 155 164 178 181 219 221 200 272 287 279 260 253 245 243 244 241 249 250 246 264 291 308 323 323 287 234 208 179 175 174 165 161 165 165 165 162 157 156 158
27 26 31 33 39 58 69 67 63 62 67 72 76 77 78 80 78 71 69 81 100 106 104 114 127 125 123 128 132 137 137 137 139 135 135 136 133 132 119 114 126 116 121 145 151 150 149 151 161 166 174 195 205 221 218 336 324 324 310 279 267 258 248 240 230 239 243 247 278 305 341 342 315 276 228 200 171 171 171 160 161 169 163 162 163 159 159 158
30 31 32 34 35 43 57 61 56 60 72 77 77 77 80 86 83 77 81 89 94 95 98 110 121 122 125 129 133 138 139 137 136 136 139 140 138 135 128 126 128 123 147 158 158 159 156 155 171 183 194 202 202 200 188 314 325 339 331 300 276 272 260 234 214 214 223 239 268 308 349 343 295 253 213 189 170 171 170 160 163 173 167 164 165 165 164 161
30 35 36 38 39 41 50 56 54 60 72 78 77 76 85 94 86 79 80 80 79 86 103 115 119 124 132 135 135 139 142 139 134 137 144 144 142 140 141 148 143 144 154 156 158 164 169 179 181 177 170 147 120 64 292 296 311 322 327 306 268 256 248 221 205 207 208 210 239 325 336 317 241 206 194 190 178 175 172 163 167 178 174 171 172 171 170 169
27 34 39 40 40 41 46 52 53 56 62 71 76 78 90 95 81 69 65 69 82 95 110 118 118 124 135 139 135 135 141 142 137 141 147 146 145 148 162 184 173 148 149 152 156 159 185 207 193 172 164 166 218 280 284 296 305 307 313 302 260 225 210 203 200 209 217 221 247 312 311 283 221 200 193 196 187 179 179 170 172 182 181 180 181 178 179 180
22 28 36 39 40 43 44 46 49 49 51 60 73 80 87 81 69 70 71 75 88 97 105 113 116 123 135 141 140 138 141 143 142 145 149 151 159 173 181 185 167 150 148 152 153 152 166 168 156 163 202 235 251 263 271 281 288 290 292 286 252 221 204 195 197 209 217 227 253 284 282 267 230 210 199 196 187 183 187 181 179 187 188 188 188 188 190 188
16 20 27 33 36 41 44 44 43 44 48 57 71 81 81 69 66 75 77 79 87 93 100 106 112 123 134 141 143 142 146 149 147 155 163 169 186 186 175 162 158 152 143 143 137 149 156 117 91 103 272 261 252 253 255 264 273 269 265 267 256 235 217 202 202 211 216 228 251 287 281 267 245 221 205 197 194 190 192 191 190 192 190 193 196 196 198 192
10 15 20 27 30 35 42 46 44 45 55 63 71 76 76 70 72 78 80 83 88 92 98 105 117 132 131 130 133 142 153 152 148 169 177 171 175 175 162 141 146 138 123 122 129 177 183 53 10 358 341 294 253 246 246 251 259 254 247 253 259 271 243 217 216 219 215 228 247 286 292 272 252 236 216 204 203 198 196 198 199 196 191 193 197 196 194 193
8 13 17 22 27 34 41 47 47 48 57 64 66 69 73 73 72 77 87 90 87 92 102 106 123 138 133 126 124 139 156 157 168 183 176 172 171 158 142 133 135 129 120 117 148 256 285 327 322 329 336 307 258 242 240 239 252 251 248 249 247 275 261 229 229 219 210 229 250 269 289 280 256 239 224 216 214 208 204 203 202 201 200 200 198 192 189 194
9 16 20 21 26 36 42 45 47 47 54 61 64 67 72 75 76 84 91 84 78 84 94 100 123 136 136 133 118 129 148 157 180 163 156 165 160 138 135 146 150 147 152 196 274 291 323 338 289 281 286 274 241 237 233 226 245 248 254 258 233 248 258 238 237 215 207 234 265 259 251 273 281 256 232 228 226 219 216 213 205 204 208 208 203 195 190 196
23 24 25 25 30 37 42 45 44 41 44 50 58 64 74 91 96 91 83 74 69 68 69 88 121 126 133 145 123 144 156 156 160 151 142 150 149 143 167 188 229 252 272 301 287 304 348 1 232 240 239 219 213 224 227 220 235 241 256 265 229 239 268 251 244 212 211 266 289 261 247 263 282 269 242 237 234 228 225 222 214 210 210 212 210 204 194 194
84 45 29 31 38 39 41 45 42 39 39 38 39 45 67 99 115 107 87 74 61 54 70 102 111 100 135 169 155 161 156 142 164 166 161 161 177 238 256 249 280 286 282 288 291 317 359 334 232 140 134 198 203 196 186 216 229 231 249 244 221 224 242 258 251 216 225 284 278 256 245 252 274 269 249 236 235 236 234 229 222 217 215 212 212 210 198 192
137 96 46 39 43 43 42 41 38 37 37 36 34 36 57 93 114 105 90 67 37 47 84 100 55 35 132 142 147 153 133 116 153 163 258 228 217 246 264 275 286 292 281 280 292 294 286 309 279 255 271 225 220 207 196 242 250 238 237 212 201 204 226 241 236 222 237 285 285 274 251 233 275 278 256 234 238 246 244 236 228 224 221 217 214 211 203 195
159 144 103 58 48 47 40 36 37 37 37 34 32 38 59 89 107 93 76 37 34 44 58 67 48 63 139 150 154 153 150 156 181 293 263 232 230 238 255 277 281 303 299 285 302 221 221 291 266 256 265 250 237 226 220 242 248 238 217 190 179 172 197 205 217 226 259 286 294 301 257 230 271 291 257 239 253 273 261 240 231 226 222 219 215 212 208 201
172 162 148 119 76 58 42 39 40 40 43 36 27 38 65 82 84 82 73 30 35 39 53 74 80 95 131 157 178 187 178 184 222 248 222 186 197 214 230 255 298 334 318 282 275 226 185 179 202 247 256 248 226 212 212 218 219 231 225 192 164 135 148 166 211 221 272 274 289 337 271 217 224 266 285 291 297 293 272 253 237 229 225 221 218 215 211 205
183 176 174 167 151 82 42 44 41 41 43 37 29 36 79 79 64 57 50 38 30 33 60 82 97 112 120 123 145 188 195 202 222 237 243 233 214 207 232 252 276 315 312 246 211 198 180 183 202 239 228 227 223 206 198 192 198 219 224 196 157 94 89 110 265 226 232 245 274 310 268 212 240 271 293 300 300 273 254 270 253 232 225 224 221 219 217 210
192 188 193 188 190 213 32 40 33 36 36 35 36 40 89 87 60 43 41 40 35 34 62 83 88 111 132 120 105 124 145 174 198 199 229 234 239 261 271 274 276 284 283 230 208 218 205 194 216 237 214 205 235 224 205 204 214 220 221 203 168 101 72 289 275 280 267 262 278 274 210 229 267 291 312 303 301 256 224 223 245 225 216 219 224 223 222 217
200 197 202 205 211 224 240 327 14 28 27 29 31 44 81 87 73 54 45 41 47 49 69 93 85 100 121 116 106 117 125 131 134 113 118 202 228 247 255 283 281 262 252 237 222 232 242 213 217 226 222 216 231 232 238 284 272 225 217 217 218 199 147 245 244 225 238 341 120 171 183 244 273 313 337 315 306 249 220 205 194 193 190 198 215 223 221 219
205 204 207 214 223 228 235 252 306 355 6 10 14 46 75 85 86 69 49 42 52 55 75 104 114 118 114 104 100 111 126 130 140 143 122 137 184 216 232 326 319 254 222 229 226 233 255 234 215 223 229 230 211 220 259 290 261 218 212 219 234 267 275 251 225 203 201 128 145 198 231 270 281 301 298 283 314 267 226 216 197 184 182 185 199 210 214 217
208 208 210 219 232 236 236 240 258 303 333 339 6 59 77 82 84 69 44 37 46 53 83 121 139 129 122 116 101 105 146 156 170 187 172 155 171 190 182 16 356 291 201 207 210 236 251 328 334 241 233 227 213 210 262 268 238 214 219 229 241 276 285 249 169 86 151 103 262 236 264 287 298 310 281 244 302 297 229 228 209 187 190 193 194 197 201 210
207 205 209 219 233 240 239 236 240 266 304 317 17 82 87 79 70 56 33 25 36 56 82 120 138 113 106 122 110 108 165 176 176 189 174 150 148 101 63 49 17 37 171 185 54 2 308 315 2 241 220 215 208 205 228 254 258 239 238 250 253 263 270 238 223 50 84 353 278 248 273 292 301 317 300 268 295 303 236 231 216 199 203 206 198 187 183 191
195 192 196 206 224 237 240 235 234 245 261 268 98 100 95 74 60 49 34 24 32 55 66 92 108 82 71 109 117 115 153 162 120 141 153 135 132 78 57 64 29 52 145 175 220 352 339 331 1 131 178 189 200 212 226 238 252 259 263 272 247 232 245 231 229 345 45 309 297 276 285 296 295 294 319 328 313 311 267 234 227 225 224 214 199 184 178 183
173 176 182 188 207 227 233 226 225 225 214 201 146 116 100 71 54 46 36 31 39 51 56 84 95 83 84 107 120 121 141 144 102 91 138 134 135 114 66 91 65 74 148 179 219 302 333 324 333 143 170 185 203 218 231 235 239 247 256 263 236 229 252 246 220 225 230 224 299 306 307 312 314 310 310 324 313 306 287 265 260 257 248 227 202 190 189 190
160 172 183 183 193 215 221 212 210 206 195 188 162 133 111 69 43 39 38 36 43 56 76 98 96 89 101 119 126 123 130 131 108 114 143 145 143 147 150 73 84 193 217 218 228 271 315 301 294 133 162 194 205 219 243 250 246 243 244 252 245 238 250 262 248 248 248 201 164 162 301 301 313 315 291 223 237 295 295 279 280 279 264 241 216 204 196 193
163 175 184 178 177 191 191 180 179 181 180 169 142 121 106 61 27 38 51 53 56 65 81 97 98 94 98 109 119 123 131 125 110 127 159 166 135 132 174 259 311 263 239 234 238 267 296 277 254 231 218 237 240 249 262 260 256 253 249 258 265 258 253 252 257 254 242 231 204 159 274 298 312 311 278 244 239 270 293 212 208 247 258 239 230 221 205 193
170 175 181 176 175 178 168 163 166 165 160 152 140 121 95 73 53 53 64 76 76 78 85 95 101 99 101 105 103 126 157 135 93 111 163 165 130 108 156 231 287 278 244 232 241 273 289 251 237 248 252 267 266 255 256 257 259 260 256 261 269 268 259 246 244 257 234 226 239 210 265 301 316 309 281 269 258 267 282 242 202 184 202 225 233 227 212 196
174 177 180 178 180 176 165 164 165 157 151 147 144 132 102 88 89 83 82 87 83 87 106 119 117 107 102 104 97 125 163 148 68 82 138 154 141 124 153 258 297 276 238 231 240 268 278 230 237 260 266 279 268 236 234 250 258 258 256 256 257 265 272 268 263 267 258 225 231 201 246 291 308 310 292 281 269 275 290 270 219 190 202 217 227 223 210 199
178 182 183 182 182 176 170 167 162 155 154 148 131 124 135 135 122 106 92 87 80 79 104 129 130 92 55 105 104 122 158 148 103 88 151 159 155 167 246 298 308 252 232 235 240 257 262 231 231 261 290 296 274 225 226 238 246 254 255 252 253 262 279 280 267 260 258 246 231 197 243 287 305 312 300 285 273 279 293 280 246 220 213 213 221 218 207 201
182 184 185 182 179 178 179 173 165 162 154 144 130 123 137 149 139 119 102 91 80 69 79 111 117 58 31 116 142 119 168 155 147 214 210 186 172 176 194 83 152 238 230 226 235 251 252 241 234 243 243 228 230 234 239 238 241 247 247 251 257 261 270 276 262 241 244 247 234 226 263 293 303 304 298 289 278 282 290 284 279 268 238 220 214 214 209 207
187 189 190 185 176 182 189 182 177 179 167 151 146 139 143 151 143 127 116 99 80 64 67 80 45 14 16 297 211 229 229 200 214 230 221 215 202 193 171 95 121 226 224 232 260 257 245 244 250 257 252 242 248 263 260 254 252 253 251 256 260 259 265 269 250 239 252 253 249 259 279 296 301 297 292 287 284 286 287 290 303 296 263 238 226 223 218 214
193 193 194 193 185 190 197 190 185 188 183 174 170 162 160 162 151 138 130 105 76 64 62 58 32 358 346 307 243 231 230 230 247 258 242 236 227 213 200 121 111 224 229 240 250 233 227 242 266 267 260 262 277 280 275 271 264 262 262 259 257 255 263 268 258 258 263 256 260 278 289 297 302 299 287 283 289 289 286 291 302 298 269 247 241 242 229 218
200 197 196 197 195 194 197 193 190 191 192 192 186 180 181 182 170 165 181 133 83 72 46 34 35 20 358 345 292 239 237 237 242 263 264 255 244 226 214 196 185 231 227 219 203 201 217 250 278 269 263 273 282 279 279 278 268 263 264 260 260 261 264 271 274 273 268 260 268 284 287 290 301 302 284 283 290 282 275 283 294 303 293 261 247 246 238 227
203 202 199 202 205 201 198 199 200 202 204 208 202 197 203 210 208 215 244 269 234 86 43 16 3 349 336 331 319 298 286 262 242 242 250 256 252 232 221 212 203 206 195 177 174 191 214 251 264 255 269 290 296 289 281 278 273 268 267 266 267 266 265 271 279 278 269 264 270 279 279 283 295 294 277 274 273 260 258 271 292 313 305 273 256 246 236 230
205 206 204 206 210 208 203 206 211 213 213 217 215 213 222 233 240 250 257 271 276 303 18 12 323 313 315 316 313 305 307 297 266 247 248 253 253 241 233 223 209 200 184 165 169 187 204 223 231 257 283 299 305 299 286 277 271 268 268 267 264 263 264 269 274 273 267 266 270 270 270 279 290 287 273 264 263 266 267 269 287 319 302 275 266 252 235 226
206 208 208 210 211 210 208 207 209 210 209 214 217 218 229 238 246 258 264 270 272 280 320 354 329 314 312 309 304 294 291 287 279 269 259 258 256 247 247 243 229 222 213 178 161 178 192 206 265 319 306 302 308 308 297 285 272 265 264 263 260 260 263 267 270 270 268 269 270 268 271 284 292 285 273 267 272 280 270 259 270 305 305 279 265 255 238 224
204 206 209 211 211 211 211 210 209 209 209 214 220 223 231 240 247 258 265 264 257 264 274 276 283 289 283 280 284 285 282 276 273 268 260 259 255 242 242 248 243 239 237 226 210 206 204 217 341 355 324 306 311 313 310 304 284 268 266 266 265 263 262 264 267 269 272 273 273 274 279 289 291 279 271 273 280 285 272 257 262 291 313 303 272 250 233 223
Height
3070 3067 3065 3062 3060 3058 3057 3055 3054 3054 3053 3052 3051 3051 3051 3051 3051 3051 3052 3052 3053 3054 3055 3056 3057 3058 3060 3062 3063 3065 3068 3072 3075 3079 3083 3087 3091 3093 3096 3100 3104 3108 3111 3113 3114 3115 3117 3119 3121 3123 3124 3125 3126 3127 3129 3130 3131 3132 3133 3134 3136 3137 3138 3139 3140 3141 3142 3143 3144 3144 3145 3145 3145 3144 3144 3144 3144 3144 3144 3144 3144 3144 3144 3145 3145 3145 3145 3144
3070 3066 3063 3061 3059 3057 3055 3054 3053 3052 3052 3051 3051 3050 3050 3051 3051 3051 3051 3052 3052 3053 3054 3055 3056 3058 3059 3061 3063 3065 3067 3071 3074 3078 3082 3086 3088 3091 3096 3100 3104 3107 3110 3112 3114 3114 3116 3118 3121 3122 3123 3124 3126 3127 3128 3130 3131 3132 3133 3134 3136 3137 3138 3139 3140 3141 3141 3142 3142 3143 3143 3143 3143 3143 3143 3143 3143 3142 3142 3143 3143 3143 3144 3144 3144 3144 3143 3143
3069 3065 3062 3060 3058 3056 3055 3054 3052 3051 3051 3051 3050 3050 3050 3050 3050 3050 3050 3051 3051 3052 3053 3054 3055 3057 3059 3061 3063 3064 3067 3070 3074 3079 3082 3085 3088 3091 3096 3100 3103 3106 3109 3112 3115 3115 3116 3118 3120 3121 3123 3124 3126 3127 3128 3129 3131 3132 3133 3134 3135 3136 3137 3138 3139 3140 3141 3141 3141 3142 3142 3141 3141 3141 3141 3141 3141 3141 3141 3142 3142 3142 3142 3143 3143 3143 3143 3143
3069 3065 3061 3059 3057 3055 3054 3053 3052 3051 3050 3050 3050 3050 3050 3049 3049 3049 3049 3049 3050 3051 3052 3053 3055 3056 3059 3060 3062 3065 3067 3071 3075 3078 3081 3084 3088 3092 3095 3099 3103 3106 3109 3112 3114 3115 3116 3118 3119 3121 3123 3124 3126 3127 3128 3129 3131 3132 3134 3134 3135 3136 3137 3138 3139 3139 3140 3140 3140 3140 3140 3140 3140 3140 3140 3140 3140 3140 3140 3140 3141 3141 3141 3142 3142 3142 3142 3142
3069 3065 3061 3059 3057 3055 3054 3053 3052 3051 3050 3050 3050 3049 3049 3048 3048 3048 3048 3048 3049 3050 3051 3053 3054 3056 3058 3060 3062 3065 3068 3072 3075 3077 3079 3084 3088 3091 3096 3099 3103 3106 3108 3111 3113 3115 3116 3118 3119 3121 3123 3125 3126 3127 3128 3130 3131 3132 3133 3134 3135 3136 3137 3137 3138 3138 3139 3139 3139 3139 3139 3139 3139 3139 3139 3139 3139 3139 3139 3139 3139 3140 3140 3141 3141 3141 3141 3142
3069 3065 3061 3059 3057 3055 3054 3053 3052 3051 3050 3050 3049 3049 3048 3048 3047 3047 3047 3048 3049 3050 3051 3053 3055 3056 3058 3060 3062 3065 3069 3073 3074 3075 3079 3085 3087 3090 3095 3099 3103 3106 3109 3111 3113 3115 3118 3118 3120 3122 3124 3126 3127 3128 3129 3130 3131 3132 3133 3133 3135 3136 3136 3137 3137 3137 3138 3137 3137 3138 3138 3138 3138 3138 3138 3138 3138 3138 3138 3138 3139 3139 3140 3140 3141 3141 3141 3141
3069 3065 3061 3059 3057 3055 3054 3053 3052 3051 3050 3050 3049 3048 3048 3047 3047 3047 3047 3048 3049 3050 3052 3053 3055 3057 3058 3060 3063 3066 3071 3073 3074 3076 3080 3085 3087 3090 3095 3099 3102 3106 3110 3113 3115 3117 3119 3119 3120 3124 3125 3126 3127 3128 3129 3130 3131 3132 3133 3133 3134 3135 3136 3136 3136 3137 3136 3136 3136 3137 3137 3137 3137 3137 3137 3137 3137 3137 3137 3137 3138 3139 3140 3140 3140 3140 3140 3140
3069 3065 3062 3060 3058 3056 3055 3053 3052 3051 3051 3050 3049 3049 3048 3048 3047 3047 3048 3049 3050 3051 3052 3054 3055 3057 3059 3061 3064 3068 3071 3073 3075 3077 3080 3085 3088 3090 3095 3099 3102 3107 3111 3114 3115 3118 3121 3120 3122 3125 3126 3127 3128 3128 3129 3130 3131 3131 3132 3133 3134 3134 3135 3135 3136 3136 3135 3135 3135 3135 3136 3136 3136 3136 3136 3136 3136 3136 3136 3136 3137 3138 3139 3140 3140 3139 3139 3140
3070 3066 3063 3060 3059 3057 3056 3054 3053 3052 3052 3051 3050 3050 3049 3049 3049 3049 3049 3050 3051 3052 3053 3054 3056 3058 3060 3062 3066 3070 3072 3074 3076 3079 3082 3086 3090 3093 3097 3100 3103 3108 3112 3114 3116 3119 3120 3121 3123 3125 3125 3127 3128 3129 3129 3130 3130 3131 3132 3133 3133 3134 3134 3134 3135 3135 3134 3134 3134 3134 3135 3135 3135 3135 3135 3135 3135 3135 3135 3136 3136 3137 3139 3139 3139 3139 3139 3139
3071 3067 3064 3062 3060 3058 3057 3055 3054 3053 3053 3052 3052 3051 3051 3051 3051 3051 3051 3052 3052 3053 3054 3056 3057 3059 3062 3064 3068 3071 3073 3075 3077 3080 3083 3087 3091 3095 3098 3101 3105 3110 3113 3115 3117 3119 3120 3121 3123 3124 3125 3126 3127 3128 3129 3129 3130 3131 3131 3132 3132 3133 3133 3134 3134 3134 3134 3134 3134 3134 3134 3134 3134 3134 3134 3134 3135 3135 3135 3135 3136 3137 3138 3139 3139 3139 3139 3140
3073 3069 3066 3064 3062 3060 3059 3057 3056 3055 3054 3054 3054 3053 3053 3053 3053 3053 3053 3054 3054 3055 3056 3057 3059 3061 3063 3066 3069 3072 3074 3076 3078 3081 3084 3088 3093 3096 3099 3103 3107 3111 3114 3116 3118 3119 3120 3121 3122 3124 3125 3126 3127 3128 3129 3129 3130 3130 3131 3131 3132 3132 3132 3133 3133 3133 3133 3133 3133 3133 3134 3134 3134 3133 3133 3133 3134 3134 3135 3135 3136 3136 3137 3139 3139 3139 3139 3140
3076 3072 3068 3066 3064 3062 3061 3059 3058 3057 3056 3055 3055 3055 3055 3055 3055 3055 3055 3056 3057 3057 3058 3059 3060 3062 3065 3068 3070 3073 3075 3077 3080 3083 3086 3089 3095 3098 3101 3105 3109 3112 3115 3118 3119 3120 3121 3121 3122 3124 3125 3126 3128 3128 3128 3129 3130 3130 3130 3131 3131 3131 3132 3132 3132 3133 3133 3133 3133 3133 3133 3133 3133 3133 3133 3133 3133 3134 3134 3135 3135 3136 3137 3139 3139 3138 3139 3140
3079 3075 3071 3068 3066 3065 3063 3062 3060 3059 3058 3057 3057 3057 3057 3057 3057 3057 3058 3058 3059 3060 3060 3061 3062 3064 3066 3069 3071 3074 3076 3079 3082 3085 3088 3092 3096 3100 3103 3108 3111 3114 3117 3119 3119 3120 3120 3121 3122 3124 3125 3126 3128 3128 3128 3129 3129 3129 3129 3130 3130 3130 3131 3131 3132 3132 3132 3132 3132 3132 3133 3133 3132 3132 3132 3132 3133 3133 3134 3134 3135 3136 3137 3138 3138 3139 3139 3139
3082 3079 3075 3072 3069 3068 3066 3065 3063 3062 3061 3059 3059 3059 3059 3059 3060 3060 3060 3061 3061 3061 3062 3062 3064 3066 3068 3070 3073 3075 3078 3081 3084 3087 3091 3095 3099 3103 3106 3108 3111 3114 3116 3118 3119 3119 3120 3121 3122 3123 3124 3126 3127 3128 3128 3128 3128 3129 3129 3129 3129 3130 3130 3131 3131 3131 3132 3132 3132 3132 3132 3132 3132 3132 3132 3132 3132 3132 3133 3134 3135 3135 3137 3138 3138 3139 3140 3140
3086 3082 3079 3076 3073 3071 3069 3069 3067 3066 3064 3063 3062 3062 3062 3062 3063 3063 3063 3064 3064 3064 3064 3064 3066 3067 3069 3072 3074 3077 3080 3083 3086 3089 3093 3098 3103 3106 3107 3109 3111 3113 3115 3116 3117 3119 3120 3121 3122 3123 3124 3125 3127 3127 3127 3127 3127 3128 3128 3128 3129 3129 3130 3130 3131 3131 3131 3132 3132 3132 3132 3132 3132 3132 3132 3132 3132 3132 3132 3133 3134 3135 3136 3137 3138 3139 3140 3141
3088 3086 3083 3080 3078 3075 3073 3072 3072 3070 3069 3067 3066 3066 3066 3066 3066 3066 3066 3066 3066 3066 3066 3067 3068 3070 3072 3074 3076 3079 3082 3085 3088 3092 3096 3101 3105 3107 3108 3109 3111 3112 3114 3116 3117 3118 3120 3121 3122 3123 3124 3125 3126 3126 3126 3127 3127 3127 3127 3128 3129 3129 3129 3130 3130 3131 3131 3132 3132 3132 3132 3132 3132 3132 3132 3132 3132 3132 3132 3133 3134 3135 3136 3137 3139 3140 3141 3142
3090 3088 3086 3084 3082 3080 3078 3077 3075 3074 3072 3071 3070 3070 3070 3070 3070 3070 3069 3069 3069 3069 3070 3070 3072 3073 3075 3077 3079 3081 3084 3087 3091 3094 3098 3102 3106 3108 3108 3110 3111 3112 3114 3116 3117 3119 3120 3122 3122 3123 3124 3125 3125 3126 3126 3126 3126 3127 3127 3128 3128 3129 3129 3130 3130 3131 3131 3132 3132 3131 3131 3131 3131 3131 3132 3132 3132 3132 3133 3133 3134 3135 3136 3137 3139 3140 3142 3143
3092 3090 3088 3086 3084 3082 3081 3081 3079 3077 3076 3075 3074 3073 3073 3073 3073 3073 3073 3072 3072 3073 3073 3074 3075 3076 3079 3081 3082 3084 3087 3090 3094 3097 3100 3103 3106 3108 3109 3111 3113 3114 3115 3117 3118 3120 3121 3122 3123 3124 3124 3125 3125 3125 3126 3126 3127 3127 3127 3127 3128 3128 3129 3130 3130 3131 3131 3131 3131 3131 3131 3131 3131 3131 3131 3132 3132 3133 3133 3133 3134 3136 3137 3137 3139 3140 3142 3143
3094 3092 3090 3088 3085 3084 3083 3083 3082 3079 3078 3078 3078 3077 3077 3077 3076 3076 3076 3076 3076 3076 3076 3078 3079 3080 3082 3085 3086 3088 3091 3094 3097 3100 3102 3105 3107 3109 3110 3112 3114 3116 3116 3118 3119 3120 3121 3122 3123 3123 3124 3124 3125 3126 3126 3126 3127 3127 3127 3127 3128 3128 3129 3130 3130 3130 3131 3131 3131 3131 3130 3130 3131 3131 3131 3132 3132 3133 3132 3133 3134 3136 3137 3137 3139 3140 3141 3142
3097 3094 3092 3090 3088 3086 3085 3085 3084 3083 3082 3081 3081 3080 3079 3079 3079 3079 3078 3077 3079 3080 3080 3081 3083 3084 3086 3087 3089 3091 3094 3097 3099 3102 3104 3106 3108 3110 3112 3113 3115 3116 3117 3118 3119 3120 3121 3122 3122 3122 3124 3125 3125 3126 3126 3126 3127 3127 3127 3127 3128 3128 3129 3130 3130 3130 3131 3131 3131 3131 3130 3131 3131 3131 3132 3132 3132 3133 3133 3133 3134 3135 3136 3137 3139 3140 3141 3142
3098 3096 3094 3093 3091 3089 3088 3087 3087 3087 3086 3084 3083 3082 3082 3082 3081 3081 3079 3079 3082 3084 3085 3085 3086 3087 3089 3090 3092 3094 3096 3099 3102 3104 3105 3107 3109 3111 3114 3115 3115 3116 3117 3118 3119 3120 3121 3121 3121 3123 3124 3125 3126 3126 3126 3126 3127 3127 3127 3127 3127 3128 3129 3129 3130 3130 3130 3131 3131 3131 3131 3131 3131 3131 3131 3132 3133 3133 3133 3133 3134 3136 3136 3137 3138 3139 3140 3141
3100 3098 3096 3095 3093 3092 3091 3090 3089 3089 3088 3087 3086 3085 3085 3085 3084 3083 3082 3083 3085 3087 3089 3090 3090 3091 3092 3094 3096 3097 3100 3102 3104 3107 3108 3109 3111 3112 3114 3116 3116 3116 3117 3118 3118 3120 3121 3121 3122 3123 3124 3125 3125 3125 3126 3126 3126 3127 3127 3127 3127 3127 3128 3129 3129 3130 3130 3130 3131 3131 3131 3130 3130 3131 3131 3132 3133 3133 3134 3134 3135 3136 3136 3137 3138 3139 3140 3141
3101 3100 3098 3097 3095 3094 3094 3093 3092 3091 3090 3089 3088 3088 3088 3088 3087 3087 3086 3086 3088 3090 3092 3093 3094 3094 3095 3097 3099 3101 3103 3105 3107 3109 3110 3111 3112 3113 3115 3116 3116 3116 3117 3118 3118 3119 3121 3121 3122 3123 3124 3124 3124 3125 3125 3125 3126 3127 3127 3127 3127 3127 3128 3128 3129 3129 3130 3130 3130 3130 3130 3130 3130 3130 3131 3132 3132 3133 3133 3134 3134 3135 3136 3137 3138 3139 3139 3140
3102 3101 3100 3099 3097 3096 3096 3095 3095 3094 3093 3093 3092 3091 3091 3090 3089 3090 3090 3090 3092 3093 3095 3096 3096 3097 3099 3101 3104 3105 3106 3108 3110 3110 3111 3112 3113 3114 3116 3117 3117 3117 3118 3119 3120 3120 3121 3122 3122 3122 3123 3124 3124 3124 3125 3125 3126 3126 3127 3127 3127 3127 3128 3128 3129 3129 3130 3130 3130 3130 3130 3129 3129 3130 3130 3131 3132 3132 3132 3133 3134 3134 3135 3136 3137 3138 3139 3140
3104 3103 3102 3100 3099 3098 3097 3097 3096 3096 3096 3096 3095 3094 3094 3093 3092 3092 3092 3092 3094 3096 3098 3098 3098 3100 3102 3104 3107 3108 3109 3109 3110 3111 3112 3114 3114 3115 3116 3117 3118 3119 3119 3120 3121 3120 3120 3121 3121 3121 3122 3123 3124 3124 3124 3125 3125 3126 3126 3127 3127 3127 3128 3128 3129 3129 3130 3130 3130 3131 3130 3128 3128 3129 3130 3130 3130 3131 3132 3132 3133 3134 3134 3135 3136 3137 3138 3139
3104 3104 3103 3102 3101 3100 3099 3098 3098 3098 3098 3098 3098 3098 3097 3096 3095 3095 3094 3094 3096 3099 3100 3099 3101 3102 3104 3107 3109 3109 3110 3111 3110 3112 3114 3115 3116 3116 3116 3117 3118 3119 3120 3121 3121 3120 3120 3120 3120 3121 3121 3122 3123 3124 3124 3125 3125 3126 3126 3126 3127 3127 3128 3128 3129 3129 3130 3130 3130 3130 3130 3129 3127 3128 3129 3129 3130 3130 3131 3131 3132 3133 3133 3134 3135 3136 3137 3138
3105 3105 3104 3103 3102 3101 3100 3099 3099 3098 3098 3099 3099 3099 3099 3098 3098 3097 3096 3097 3100 3103 3103 3103 3104 3105 3105 3108 3110 3110 3111 3112 3112 3114 3114 3115 3116 3116 3117 3117 3118 3119 3120 3121 3120 3120 3119 3120 3120 3120 3121 3122 3123 3124 3124 3125 3125 3126 3126 3126 3127 3127 3128 3128 3129 3129 3130 3130 3130 3130 3130 3129 3127 3126 3127 3128 3128 3129 3129 3129 3130 3131 3132 3133 3135 3136 3137 3138
3105 3105 3105 3104 3103 3102 3101 3101 3100 3099 3099 3099 3099 3099 3099 3099 3099 3099 3098 3100 3104 3105 3105 3106 3105 3105 3106 3108 3110 3111 3111 3112 3114 3114 3115 3115 3116 3116 3117 3117 3117 3118 3120 3120 3119 3119 3119 3120 3120 3121 3121 3122 3123 3124 3124 3124 3125 3125 3126 3126 3127 3127 3128 3128 3129 3129 3130 3130 3129 3129 3129 3130 3126 3125 3126 3126 3126 3126 3126 3127 3129 3130 3131 3132 3133 3135 3136 3137
3105 3105 3106 3105 3105 3104 3103 3102 3102 3101 3100 3100 3100 3099 3099 3099 3100 3099 3099 3102 3105 3106 3106 3106 3106 3106 3106 3108 3110 3111 3112 3113 3114 3114 3115 3115 3116 3116 3116 3116 3117 3118 3119 3119 3119 3119 3120 3120 3120 3121 3121 3122 3123 3123 3124 3125 3125 3125 3126 3126 3127 3128 3128 3129 3129 3129 3130 3129 3128 3128 3129 3129 3126 3122 3124 3124 3123 3123 3123 3125 3127 3128 3130 3131 3132 3134 3135 3136
3105 3105 3106 3106 3105 3105 3104 3104 3103 3102 3102 3101 3101 3101 3100 3100 3100 3099 3101 3104 3106 3106 3106 3106 3106 3107 3107 3109 3110 3112 3113 3113 3113 3115 3115 3115 3116 3117 3116 3116 3117 3118 3118 3118 3119 3119 3120 3120 3120 3121 3121 3122 3123 3123 3124 3124 3125 3125 3126 3126 3127 3128 3128 3129 3130 3130 3131 3129 3127 3127 3127 3128 3126 3121 3121 3122 3121 3122 3122 3123 3125 3126 3128 3129 3131 3133 3134 3136
3104 3105 3106 3106 3106 3106 3105 3105 3105 3104 3103 3103 3102 3101 3101 3101 3100 3100 3103 3106 3106 3106 3106 3106 3107 3108 3108 3110 3111 3112 3113 3113 3114 3116 3116 3115 3116 3116 3116 3117 3117 3118 3118 3118 3119 3119 3120 3120 3120 3121 3121 3122 3122 3123 3124 3124 3124 3125 3126 3126 3127 3128 3129 3130 3130 3130 3131 3129 3127 3126 3126 3128 3126 3121 3119 3121 3121 3121 3122 3122 3123 3124 3126 3128 3129 3131 3133 3135
3103 3104 3105 3106 3106 3106 3106 3106 3105 3105 3104 3104 3103 3102 3101 3101 3101 3102 3105 3106 3106 3106 3106 3106 3107 3108 3108 3110 3110 3111 3112 3113 3113 3115 3115 3115 3115 3115 3116 3116 3117 3118 3118 3118 3119 3119 3120 3120 3120 3120 3121 3122 3122 3123 3123 3124 3124 3125 3125 3126 3127 3129 3130 3131 3131 3131 3130 3128 3126 3126 3126 3127 3124 3119 3119 3120 3120 3121 3121 3122 3122 3123 3124 3126 3128 3130 3132 3133
3103 3103 3105 3106 3106 3106 3106 3106 3106 3106 3105 3105 3104 3103 3101 3101 3103 3105 3105 3105 3106 3106 3106 3106 3107 3108 3108 3109 3110 3110 3111 3112 3113 3113 3114 3114 3115 3115 3115 3116 3117 3118 3118 3119 3119 3120 3120 3120 3120 3120 3121 3121 3122 3122 3123 3123 3124 3124 3125 3126 3126 3128 3131 3132 3131 3130 3128 3127 3126 3126 3127 3125 3121 3118 3119 3119 3119 3119 3120 3120 3121 3122 3123 3126 3127 3129 3130 3132
3102 3103 3104 3105 3106 3106 3106 3106 3106 3106 3106 3105 3105 3104 3102 3103 3105 3106 3106 3106 3106 3106 3106 3107 3107 3108 3108 3108 3109 3110 3111 3112 3113 3113 3114 3114 3115 3115 3116 3116 3117 3118 3118 3119 3119 3119 3119 3119 3119 3120 3120 3121 3122 3122 3123 3123 3123 3123 3124 3125 3125 3126 3128 3129 3129 3128 3127 3126 3126 3126 3126 3123 3119 3119 3119 3119 3118 3118 3118 3119 3120 3121 3122 3124 3126 3128 3129 3130
3101 3102 3103 3104 3105 3106 3106 3106 3106 3106 3106 3106 3105 3105 3104 3105 3107 3107 3106 3106 3106 3106 3106 3107 3107 3108 3108 3108 3109 3110 3110 3111 3113 3114 3114 3115 3115 3116 3116 3117 3116 3116 3117 3118 3118 3119 3118 3118 3119 3119 3120 3121 3121 3122 3123 3123 3123 3124 3125 3125 3125 3125 3126 3126 3126 3126 3126 3126 3126 3125 3123 3120 3119 3119 3118 3118 3118 3117 3118 3118 3119 3120 3121 3122 3124 3126 3127 3129
3100 3101 3102 3103 3104 3105 3106 3106 3106 3106 3106 3106 3106 3105 3105 3106 3107 3107 3107 3107 3107 3107 3106 3107 3108 3108 3108 3109 3109 3109 3110 3111 3112 3113 3114 3115 3115 3116 3116 3116 3115 3115 3116 3117 3118 3118 3118 3118 3118 3119 3119 3120 3121 3122 3122 3123 3123 3124 3124 3124 3124 3125 3125 3125 3126 3126 3126 3126 3125 3123 3121 3119 3119 3118 3117 3118 3118 3117 3118 3118 3119 3120 3121 3122 3123 3124 3126 3127
3100 3101 3102 3103 3104 3104 3105 3105 3106 3106 3106 3106 3106 3106 3106 3107 3107 3107 3107 3107 3107 3107 3106 3107 3107 3108 3108 3109 3109 3109 3110 3111 3112 3113 3114 3114 3115 3115 3115 3115 3115 3115 3115 3117 3118 3118 3118 3118 3118 3118 3119 3120 3121 3121 3122 3122 3123 3123 3123 3123 3124 3125 3125 3125 3125 3126 3127 3127 3124 3122 3120 3119 3118 3118 3117 3118 3118 3118 3118 3118 3119 3120 3120 3122 3123 3124 3125 3126
3099 3100 3101 3102 3103 3104 3104 3105 3106 3106 3106 3106 3106 3107 3107 3107 3108 3107 3107 3107 3107 3107 3106 3106 3107 3107 3108 3108 3109 3109 3110 3110 3111 3112 3113 3113 3114 3114 3115 3115 3115 3115 3115 3117 3117 3118 3118 3118 3118 3118 3118 3119 3120 3121 3121 3122 3122 3122 3123 3123 3124 3124 3124 3124 3125 3125 3126 3127 3125 3122 3120 3119 3118 3118 3118 3118 3118 3118 3118 3119 3119 3119 3120 3121 3122 3124 3125 3126
3099 3100 3101 3102 3102 3103 3104 3104 3105 3105 3105 3106 3106 3107 3107 3108 3108 3107 3107 3107 3107 3107 3107 3107 3107 3107 3108 3108 3109 3109 3110 3110 3111 3111 3112 3113 3114 3114 3115 3115 3115 3116 3116 3117 3117 3118 3118 3118 3118 3118 3118 3118 3119 3120 3120 3120 3121 3122 3122 3123 3123 3123 3123 3123 3124 3124 3124 3126 3126 3123 3120 3119 3118 3118 3118 3118 3118 3118 3118 3118 3119 3119 3120 3121 3122 3123 3124 3125
3099 3100 3101 3101 3102 3103 3103 3104 3104 3105 3105 3105 3106 3107 3107 3108 3108 3108 3107 3107 3107 3107 3107 3107 3107 3107 3108 3109 3109 3109 3110 3110 3110 3111 3112 3113 3114 3114 3115 3115 3115 3116 3116 3116 3117 3117 3117 3118 3118 3118 3118 3118 3118 3119 3119 3120 3120 3121 3122 3122 3122 3123 3123 3123 3123 3123 3123 3125 3126 3125 3122 3118 3118 3118 3118 3118 3118 3118 3118 3118 3119 3119 3120 3121 3121 3122 3124 3125
3099 3100 3100 3101 3102 3102 3103 3103 3104 3104 3105 3105 3106 3107 3107 3108 3108 3108 3107 3107 3107 3107 3107 3107 3107 3108 3108 3109 3109 3109 3110 3110 3110 3111 3111 3113 3114 3114 3114 3115 3115 3115 3116 3116 3116 3117 3117 3117 3117 3117 3118 3118 3118 3118 3119 3119 3120 3120 3121 3121 3122 3122 3123 3123 3123 3123 3123 3123 3124 3125 3122 3118 3117 3118 3118 3118 3118 3118 3118 3118 3119 3119 3120 3120 3121 3122 3123 3124
3098 3100 3100 3101 3101 3102 3103 3103 3103 3104 3104 3105 3106 3107 3107 3108 3108 3108 3108 3107 3107 3107 3107 3107 3107 3108 3108 3109 3109 3109 3109 3110 3111 3111 3111 3113 3114 3114 3114 3114 3115 3115 3115 3115 3116 3116 3116 3116 3117 3117 3117 3118 3118 3118 3118 3119 3119 3120 3120 3120 3121 3122 3122 3123 3122 3122 3122 3122 3122 3123 3121 3118 3117 3118 3117 3118 3118 3118 3118 3118 3118 3119 3119 3120 3121 3121 3122 3123
3098 3099 3100 3101 3101 3102 3102 3102 3103 3103 3104 3105 3106 3107 3107 3108 3108 3108 3108 3107 3107 3107 3107 3107 3108 3108 3108 3109 3109 3109 3109 3110 3111 3111 3111 3112 3113 3114 3114 3114 3114 3114 3115 3115 3115 3115 3116 3116 3116 3116 3117 3117 3117 3117 3117 3118 3118 3118 3119 3119 3120 3120 3120 3121 3121 3121 3121 3121 3121 3122 3121 3118 3117 3118 3117 3117 3117 3117 3118 3118 3118 3118 3119 3119 3120 3120 3121 3122
3097 3099 3100 3100 3101 3102 3102 3102 3103 3103 3104 3105 3106 3106 3107 3107 3108 3108 3108 3107 3107 3107 3107 3107 3108 3108 3109 3109 3109 3109 3109 3110 3110 3111 3111 3112 3112 3113 3113 3113 3113 3114 3114 3114 3114 3115 3115 3116 3116 3116 3117 3117 3117 3117 3117 3116 3117 3117 3117 3118 3118 3119 3119 3119 3119 3120 3120 3120 3120 3121 3120 3117 3117 3117 3117 3117 3117 3117 3117 3117 3117 3118 3118 3119 3119 3119 3120 3121
3097 3098 3099 3100 3101 3101 3102 3102 3103 3104 3104 3105 3106 3106 3107 3107 3108 3108 3108 3107 3107 3107 3108 3108 3108 3108 3109 3109 3109 3109 3109 3109 3110 3110 3111 3111 3112 3112 3113 3113 3113 3113 3113 3113 3114 3114 3114 3115 3115 3115 3116 3117 3117 3117 3116 3115 3116 3116 3116 3116 3117 3117 3118 3118 3118 3119 3119 3118 3119 3119 3118 3116 3117 3117 3116 3116 3117 3116 3117 3117 3117 3117 3117 3118 3118 3118 3119 3120
3096 3098 3099 3099 3100 3101 3102 3102 3103 3104 3104 3105 3106 3106 3107 3107 3107 3108 3108 3108 3107 3107 3108 3108 3108 3108 3108 3109 3109 3109 3110 3109 3109 3110 3110 3111 3111 3112 3113 3113 3112 3112 3113 3113 3113 3114 3114 3114 3114 3115 3115 3115 3115 3115 3115 3115 3115 3115 3115 3115 3115 3116 3116 3116 3117 3117 3117 3117 3117 3116 3116 3116 3116 3116 3116 3116 3116 3116 3116 3116 3116 3116 3116 3117 3117 3118 3118 3119
3095 3097 3098 3099 3100 3100 3101 3102 3103 3104 3104 3105 3105 3106 3106 3107 3107 3107 3108 3108 3108 3108 3107 3107 3107 3108 3108 3108 3109 3109 3109 3110 3110 3110 3110 3110 3111 3111 3112 3112 3112 3112 3112 3112 3112 3112 3113 3113 3114 3114 3114 3114 3115 3114 3114 3114 3114 3114 3114 3114 3114 3114 3115 3115 3115 3115 3115 3116 3115 3115 3115 3115 3115 3115 3115 3115 3115 3115 3115 3115 3115 3116 3116 3116 3116 3117 3117 3117
3094 3096 3097 3098 3099 3100 3101 3102 3103 3104 3104 3105 3105 3106 3106 3106 3107 3107 3107 3108 3108 3108 3107 3107 3107 3107 3108 3108 3108 3108 3109 3109 3109 3109 3109 3109 3110 3110 3111 3112 3112 3112 3112 3112 3111 3112 3113 3113 3113 3113 3113 3114 3114 3114 3113 3113 3113 3113 3113 3113 3113 3113 3113 3113 3113 3113 3113 3114 3113 3114 3114 3114 3114 3114 3114 3114 3114 3114 3114 3114 3115 3115 3115 3115 3115 3115 3116 3116
3093 3095 3096 3097 3098 3099 3100 3101 3102 3103 3104 3105 3105 3106 3106 3106 3107 3107 3107 3107 3108 3108 3107 3107 3107 3107 3107 3107 3108 3108 3108 3108 3108 3109 3109 3109 3109 3109 3110 3111 3112 3112 3112 3111 3111 3112 3113 3113 3113 3113 3113 3113 3113 3113 3113 3112 3112 3112 3112 3112 3112 3111 3111 3111 3111 3111 3112 3112 3112 3112 3112 3112 3113 3113 3113 3113 3113 3113 3114 3114 3114 3114 3114 3114 3114 3114 3114 3115
3092 3094 3095 3097 3098 3099 3100 3101 3102 3103 3103 3104 3105 3105 3106 3106 3107 3107 3107 3107 3107 3107 3107 3107 3107 3107 3107 3107 3107 3107 3107 3107 3108 3108 3108 3108 3108 3108 3109 3110 3111 3111 3111 3111 3111 3111 3112 3112 3112 3112 3112 3112 3112 3112 3111 3111 3110 3110 3110 3110 3110 3109 3110 3110 3110 3110 3110 3110 3111 3111 3111 3111 3111 3111 3112 3112 3112 3112 3113 3113 3113 3113 3112 3112 3113 3113 3113 3114
3091 3093 3094 3096 3097 3098 3099 3100 3101 3102 3103 3104 3104 3105 3106 3106 3106 3107 3107 3107 3107 3107 3107 3107 3107 3106 3106 3106 3106 3106 3106 3106 3106 3107 3107 3107 3107 3108 3108 3109 3110 3110 3110 3110 3111 3111 3111 3112 3112 3112 3112 3111 3111 3111 3110 3109 3109 3108 3108 3108 3108 3108 3108 3108 3108 3108 3109 3109 3109 3110 3109 3109 3110 3110 3111 3111 3111 3111 3112 3112 3112 3112 3111 3111 3111 3111 3112 3112
3090 3091 3093 3095 3096 3097 3099 3100 3101 3102 3103 3103 3104 3105 3105 3106 3106 3106 3106 3107 3106 3106 3106 3106 3106 3106 3106 3106 3105 3105 3105 3105 3105 3105 3105 3105 3106 3106 3107 3107 3108 3109 3109 3110 3110 3110 3111 3111 3111 3111 3111 3110 3110 3110 3109 3108 3108 3107 3107 3107 3107 3107 3106 3106 3107 3107 3107 3108 3108 3108 3108 3108 3109 3109 3109 3110 3110 3110 3111 3111 3111 3110 3110 3110 3110 3110 3110 3110